Location: Nora Junction
(43.1400°N, 93.0163°W)
Time: 01:33:22
(UTC+00:00)

Landsat 7 - Pass Details

Date: 18 November 2025
Orbit: 680 x 682 km, 97.9° (Epoch: 08 December)

Event Time Altitude Azimuth Distance (km) Brightness Sun altitude
Rises 23:19:37 0° 150° (SSE) 3,030 7.0 -6.6°
Reaches altitude 10° 23:21:54 10° 144° (SE) 2,119 6.1 -7.0°
Maximum altitude 23:26:20 47° 72° (ENE) 907 4.0 -7.7°
Drops below altitude 10° 23:30:48 10° 359° (N) 2,132 6.1 -8.5°
Sets 23:33:06 0° 354° (N) 3,052 7.0 -8.9°
